Decorah, Iowa, United States (52101)
Lat: 43.30N, Lon: 91.79W
Wx Zone: IAZ010
Local Info
Past Weather Observations for Today

NOTE: This archive is for the closest National Weather Service station to Decorah. Information may differ from the station used for current weather conditions.

Click here for Long-term Archive

Time Weather Temperature Dewpoint Humidity Pressure Winds Precip Visibility
09:35
Mostly Cloudy
72°F / 22°C 64°F / 18°C 78% 29.98 in
(1015 mb)
SW 5.8 mph
(SW 9 kph)
- 10SM
09:15
Partly Cloudy
72°F / 22°C 64°F / 18°C 78% 29.98 in
(1015 mb)
SSE 5.8 mph
(SSE 9 kph)
- 10SM
08:55
Partly Cloudy
72°F / 22°C 64°F / 18°C 78% 29.98 in
(1015 mb)
Variable 3.5 mph
(Variable 6 kph)
- 10SM
08:35
Clear
70°F / 21°C 64°F / 18°C 83% 29.98 in
(1015 mb)
Variable 5.8 mph
(Variable 9 kph)
- 10SM
08:15
Partly Cloudy
70°F / 21°C 63°F / 17°C 78% 29.98 in
(1015 mb)
Variable 6.9 mph
(Variable 11 kph)
- 10SM
07:55
Overcast
68°F / 20°C 63°F / 17°C 83% 29.98 in
(1015 mb)
S 8.1 mph
(S 13 kph)
- 10SM
07:35
Overcast
66°F / 19°C 63°F / 17°C 88% 30.01 in
(1016 mb)
Variable 5.8 mph
(Variable 9 kph)
- 10SM
07:15
Partly Cloudy
68°F / 20°C 61°F / 16°C 78% 30.01 in
(1016 mb)
Variable 6.9 mph
(Variable 11 kph)
- 10SM
06:55
Clear
66°F / 19°C 63°F / 17°C 88% 30.01 in
(1016 mb)
Variable 4.6 mph
(Variable 7 kph)
- 10SM
06:35
Clear
64°F / 18°C 61°F / 16°C 88% 30.01 in
(1016 mb)
SSE 4.6 mph
(SSE 7 kph)
- 10SM
06:15
Clear
63°F / 17°C 61°F / 16°C 94% 30.01 in
(1016 mb)
SSE 4.6 mph
(SSE 7 kph)
- 10SM
05:55
Clear
61°F / 16°C 59°F / 15°C 94% 30.01 in
(1016 mb)
S 3.5 mph
(S 6 kph)
- 7SM
05:35
Clear
Fog And Mist
59°F / 15°C 59°F / 15°C 100% 30.01 in
(1016 mb)
S 4.6 mph
(S 7 kph)
- 6SM
05:15
Clear
Fog And Mist
59°F / 15°C 57°F / 14°C 94% 30.01 in
(1016 mb)
S 3.5 mph
(S 6 kph)
- 6SM
04:55
Clear
59°F / 15°C 57°F / 14°C 94% 30.01 in
(1016 mb)
SSE 3.5 mph
(SSE 6 kph)
- 7SM
04:35
Clear
57°F / 14°C 57°F / 14°C 100% 30.01 in
(1016 mb)
SSE 3.5 mph
(SSE 6 kph)
- 7SM
04:15
Partly Cloudy
59°F / 15°C 57°F / 14°C 94% 30.01 in
(1016 mb)
Calm - 8SM
03:55
Partly Cloudy
Fog And Mist
59°F / 15°C 59°F / 15°C 100% 30.01 in
(1016 mb)
Calm - 4SM
03:35
Clear
Fog And Mist
59°F / 15°C 57°F / 14°C 94% 30.01 in
(1016 mb)
Calm - 5SM
03:15
Clear
Fog And Mist
59°F / 15°C 57°F / 14°C 94% 30.01 in
(1016 mb)
Calm - 3SM
02:55
Partly Cloudy
Fog And Mist
61°F / 16°C 59°F / 15°C 94% 30.01 in
(1016 mb)
S 3.5 mph
(S 6 kph)
- 5SM
02:35
Partly Cloudy
Fog And Mist
61°F / 16°C 59°F / 15°C 94% 30.01 in
(1016 mb)
S 3.5 mph
(S 6 kph)
- 6SM
02:15
Partly Cloudy
Fog And Mist
61°F / 16°C 59°F / 15°C 94% 30.01 in
(1016 mb)
S 4.6 mph
(S 7 kph)
- 5SM
01:55
Clear
Fog And Mist
61°F / 16°C 59°F / 15°C 94% 30.01 in
(1016 mb)
S 3.5 mph
(S 6 kph)
- 6SM
01:35
Clear
Fog And Mist
61°F / 16°C 59°F / 15°C 94% 30.01 in
(1016 mb)
S 4.6 mph
(S 7 kph)
- 6SM
01:15
Clear
61°F / 16°C 59°F / 15°C 94% 30.01 in
(1016 mb)
S 5.8 mph
(S 9 kph)
- 7SM
00:55
Partly Cloudy
Fog And Mist
59°F / 15°C 59°F / 15°C 100% 30.01 in
(1016 mb)
S 4.6 mph
(S 7 kph)
- 5SM
00:35
Partly Cloudy
Fog And Mist
61°F / 16°C 59°F / 15°C 94% 30.04 in
(1017 mb)
Calm - 5SM
00:15
Partly Cloudy
Fog And Mist
63°F / 17°C 59°F / 15°C 88% 30.04 in
(1017 mb)
Calm - 5SM
Time Weather Temperature Dewpoint Humidity Pressure Winds Precip Visibility


Weather for websites

WeatherForYou.com, LLC is not responsible for any damages or problems caused by this service. Current weather conditions are obtained from the closest station including government and personal stations which may have varying degrees of accuracy. Weather forecasts are derived from the NOAA NDFD. Like all things, this site belongs to Jesus Christ... He just trusts us to maintain it. If you have any questions or comments email webmaster@weatherforyou.com

Copyright © 2016, WeatherForYou.com LLC. All rights reserved.